Weather Roundup
Issued by NWS Corpus Christi, TX

Home | Current Version | Previous Version | Text Only | Print | Product List | Glossary On
Versions: 1 2 3 4 5 6 7 8 9 10 11 12 13 14 15 16 17 18 19 20 21 22 23 24 25 26 27 28 29 30 31 32 33 34 35 36 37 38 39 40 41 42 43 44 45 46 47 48 49 50
000
ASUS44 KCRP 031310
HRRCRP

SOUTH TEXAS REGIONAL WEATHER ROUNDUP
NATIONAL WEATHER SERVICE CORPUS CHRISTI TX
800 AM CDT TUE MAY 03 2016


TXZ229>244-031400-
...CORPUS CHRISTI AREA OBSERVATIONS...

CITY           SKY/WX    TMP DP  RH WIND       PRES   REMARKS
CORPUS CHRISTI CLOUDY    65  51  60 N10       30.06R
NAS CORPUS CHR CLOUDY    66  57  72 N16       30.05R
ROCKPORT       CLOUDY    64  52  64 N12       30.06R
KINGSVILLE NAS CLOUDY    64  55  72 N9        30.07R
ALICE          CLOUDY    64  51  62 NE16G24   30.07R
FALFURRIAS     CLOUDY    65  51  60 N7        30.07R
$$

...VICTORIA AREA OBSERVATIONS...

CITY           SKY/WX    TMP DP  RH WIND       PRES   REMARKS
VICTORIA       CLOUDY    60  52  74 N10       30.07R
BEEVILLE       CLOUDY    61  55  80 NE9       30.08S
PLEASANTON     FAIR      59  51  74 N5        30.10S
SAN ANTONIO    PTSUNNY   59  50  72 N7        30.11S
$$

...LAREDO AREA OBSERVATIONS...

CITY           SKY/WX    TMP DP  RH WIND       PRES   REMARKS
LAREDO         CLOUDY    63  51  65 NE13      30.10R
COTULLA        CLOUDY    61  51  70 CALM      30.11R
DEL RIO        FAIR      56  52  86 NE7       30.09S
MCALLEN        CLOUDY    68  53  58 N14       30.05R
HEBBRONVILLE   CLOUDY    63  51  65 NE9       30.09R
$$

...OTHER TEXAS OBSERVATIONS...

CITY           SKY/WX    TMP DP  RH WIND       PRES   REMARKS
BROWNSVILLE    CLOUDY    65  56  72 N10       30.02R
HOUSTON        PTSUNNY   58  52  80 N8        30.07R
COL. STATION   FAIR      56  52  86 N6        30.11R
AUSTIN         PTSUNNY   58  51  78 N7        30.12R
WACO           FAIR      53  49  86 NW3       30.12R
FORT WORTH     FAIR      56  48  74 N6        30.11R
WICHITA FALLS  FAIR      51  47  86 SW9       30.13R
LUBBOCK        FAIR      47  36  65 SW5       30.11R
EL PASO        FAIR      54  31  41 NE7       30.11R
$$

...MARINE OBSERVATIONS...

STATION/POSITION TIME  SKY/WX   TEMP    WIND        PRES    VSBY  WAVE   SWELL
                                AIR SEA DIR/SP/G                  HT/PER HT/PER
                 (UTC)          (F)     (DEG/KT/KT) (MB)    (MI)  (FT/S) (FT/S)
PORT ARANSAS     1200            65 76  360/ 15/ 19 1017.5R
BUOY 90 E PORT A 1250            69 76   10/ 19/ 21 1015.7R         6/ 6
BUOY 45 SE BAFFI 1250            69 74   10/ 17/ 19 1015.9R         5/ 7   2/11
BUOY 200 E PT IS 1250                                 N/A           5/ 7   3/ 7
BUOY 15 E GALVES 1250            65 74  340/ 16/ 19 1015.8R         3/ 4   2/ 7
$$




USA.gov is the U.S. government's official web portal to all federal, state and local government web resources and services.